Location: Unspecified
(29.9680°N, 0.0000°E)
Time: 20:39:46
(UTC+00:00)

Explorer 7 - Pass Details

Date: 29 June 2019
Orbit: 485 x 680 km, 50.3° (Epoch: 17 July)

Event Time Altitude Azimuth Distance (km) Brightness Sun altitude
Rises 04:11:11 0° 201° (SSW) 2,556 - -10.2°
Exits shadow 04:12:49 - 195° (SSW) 1,937 9.2 -9.9°
Reaches altitude 10° 04:13:29 10° 190° (S) 1,697 8.9 -9.8°
Maximum altitude 04:16:51 29° 129° (SE) 957 8.2 -9.2°
Drops below altitude 10° 04:20:22 10° 68° (ENE) 1,783 11.0 -8.6°
Sets 04:22:51 0° 57° (ENE) 2,714 13.0 -8.1°
